STARLINK-32915, 63152

Orbit data source: Space-Track

STARLINK-32915, 63152 is a payload satellite owned by SpaceX/Seattle (US) in LEO that was launched on Mon, 03 Mar 2025 UTC via an FALCON 9 launch vehicle from the Air Force Eastern Test Range (AFETR). Payload-class satellites include a variety of spacecraft equipped with specific instruments for various scientific and technological missions. These include communications satellites like Starlink; space stations such as the ISS; scientific satellites like the Hubble; Earth observation satellites from companies like Planet Labs, Umbra, and HawkEye 360; GPS; miniature CubeSats for education and research; and military/defense satellites.

Loading next visibility...
Identifier
63152, 2025-043W
Orbit
LEO
Last TLE update
12 hours ago
Origin
Manufacturer
SpaceX/Seattle
Mission
Operational Commercial Communications
Bus & Motor
STARLINK V2M, Unknown motor
Mass
730 kg wet, ~700 kg dry
Launch date (UTC)
2025-03-03 (4 months ago)
Launch vehicle
FALCON 9
Launch site
Air Force Eastern Test Range (AFETR)
Object type
Payload
Rocket body
Debris
Shape & HBR
Box + 2 Pan, 29 m
Radar Cross Section
33.884 m², Large (>1 m²)

Expand to show TLE details & history

TLE from 12 hours ago
0 STARLINK-32915
1 63152U 25043W   25186.46765213  .00031272  00000-0  11404-2 0  9994
2 63152  43.0002 339.2271 0003148 291.4839  68.5677 15.27597526 19476
Epoch: 2025-07-05T11:13Z
TLE epoch observation values (Epoch: 2025-07-05T11:13:25.144Z)
Latitude
0.00001°
Longitude
-112.83293°
Altitude
481.984 km
Speed
7.627 km/s
True Right ascension
22h 36m 54s
True Declination
0° 00' 00"
Sunlit
Object was in full shadow at epoch
Visualization orbit readout
Latitude
31.42567°
Longitude
23.78394°
Altitude
485.793 km
Speed
7.626 km/s
Apparent Right ascension
04h 02m 02s
Apparent Declination
-6° 56' 18"
Sunlit
Object is in daylight
Visualization observer readout
Local Sidereal Time
10:42:49
Azimuth
271.178° WNW
Elevation
-12.256°
Doppler factor
1
Orbital elements
Apogee altitude
487.102 km
Perigee altitude
482.781 km
Semi-major axis
6,863.079 km
Eccentricity
0.00031
Inclination
43.0002°
RAAN
339.2271°
Arg. of periapsis
291.4839°
True anomaly
Unknown
Mean anomaly
68.5677°
Eccentric anomaly
Unknown
Mean motion
3.81737 °/min
Orbital period
94.31 mins
BSTAR
0.0011404
Loading maneuver chart data...
Loading SW <> Apogee altitude chart data...
Loading historical data...
Loading historical data...
Loading historical data...
Loading historical data...
Loading historical data...
Loading historical data...
Loading historical data...

STARLINK-32915 Visibility forecast

Observer location: undefined°, undefined°

Span
Click to sort rows by Start time (UTC) header in descending order
Start Az.
Max El. time (UTC)
Max El. Az.
Max El.
End time (UTC)
End Az.
5 mins2025-07-06 12:30:34.988Z186.003° SSW2025-07-06 12:32:34.988Z153.168° SSE16.816°2025-07-06 12:35:34.988Z100.081° ESE
5 mins2025-07-06 14:09:34.988Z241.19° WSW2025-07-06 14:11:34.988Z159.777° S44.232°2025-07-06 14:14:34.988Z74.209° E
5 mins2025-07-06 15:48:34.988Z287.702° WNW2025-07-06 15:50:34.988Z350.43° N38.37°2025-07-06 15:53:34.988Z71.048° E
6 mins2025-07-06 17:27:34.988Z292.848° NW2025-07-06 17:29:34.988Z336.486° NNW42.756°2025-07-06 17:33:34.988Z99.546° ESE
5 mins2025-07-06 19:06:34.988Z263.223° W2025-07-06 19:08:34.988Z213.225° SW28.546°2025-07-06 19:11:34.988Z149.117° SSE
|